User: anonymous   Login
Location: Unspecified
(0.0000°N, 0.0000°E)
Time: 04:15:14
(UTC+00:00)
Language:

CUTE 1.7 + AOD 2 - Orbit

View from above orbital plane
View from above orbital plane
View from above satellite
View from above satellite

Ground track
Ground track

The orbit data is extracted from the following two-line orbital elements,

1 32785U 08021C   18197.49872272  .00000161  00000-0  23111-4 0  9993
2 32785  97.5465 208.2770 0011751 305.6379  54.3743 14.88145457553531
Epoch (UTC): 16 July 2018 11:58:09
Eccentricity: 0.0011751
inclination: 97.5465°
perigee height: 595 km
apogee height: 612 km
right ascension of ascending node: 208.2770°
argument of perigee: 305.6379°
revolutions per day: 14.88145457
mean anomaly at epoch: 54.3743°
orbit number at epoch: 55353

The dashed part of the orbit path shows where the satellite is in the earth's shadow,  

DLR